GW0058 Weather Reports


Display with metric or nautical units.
time (UTC)temp
F
wind
direction
speed
MPH
gust
MPH
rain 1hr
in
rain 24hr
in
rain mn
in
humidity
%
barometer
mb
20260903221046 96 144 5.0 14.0 0.00 0.00 0.00 44 1011.5
20260903220549 97 103 4.0 15.0 0.00 0.00 0.00 44 1011.5
20260903220104 97 188 8.0 15.0 0.00 0.00 0.00 45 1011.6
20260903215550 97 125 7.0 12.0 0.00 0.00 0.00 44 1011.5
20260903215047 98 153 2.0 10.0 0.00 0.00 0.00 39 1011.5
20260903214559 98 192 3.0 10.0 0.00 0.00 0.00 39 1011.5
20260903214049 98 182 4.0 10.0 0.00 0.00 0.00 40 1011.4
20260903213552 97 135 2.0 8.0 0.00 0.00 0.00 41 1011.6
20260903213051 97 135 3.0 8.0 0.00 0.00 0.00 41 1011.6
20260903212546 97 194 4.0 8.0 0.00 0.00 0.00 41 1011.6
20260903212046 97 178 2.0 12.0 0.00 0.00 0.00 42 1011.7
20260903211608 96 167 2.0 12.0 0.00 0.00 0.00 44 1011.7
20260903211050 96 134 5.0 12.0 0.00 0.00 0.00 44 1011.8
20260903210547 95 168 4.0 10.0 0.00 0.00 0.00 44 1012.0
20260903210057 96 159 3.0 11.0 0.00 0.00 0.00 45 1012.0
20260903205549 96 142 4.0 11.0 0.00 0.00 0.00 45 1011.9
20260903205049 96 115 3.0 8.0 0.00 0.00 0.00 45 1012.0
20260903204555 95 180 4.0 10.0 0.00 0.00 0.00 46 1012.1
20260903204050 95 128 4.0 10.0 0.00 0.00 0.00 45 1012.1
20260903203549 95 73 3.0 9.0 0.00 0.00 0.00 45 1012.2
20260903203103 96 130 3.0 12.0 0.00 0.00 0.00 44 1012.4
20260903202547 96 129 4.0 12.0 0.00 0.00 0.00 43 1012.4
20260903202047 97 103 3.0 12.0 0.00 0.00 0.00 42 1012.5
20260903201605 98 215 6.0 12.0 0.00 0.00 0.00 40 1012.5
20260903201046 99 167 3.0 7.0 0.00 0.00 0.00 40 1012.5
20260903200547 98 134 3.0 9.0 0.00 0.00 0.00 42 1012.6
20260903200101 99 0 3.0 15.0 0.00 0.00 0.00 41 1012.6
20260903195549 99 107 4.0 15.0 0.00 0.00 0.00 41 1012.6
20260903195049 98 165 4.0 15.0 0.00 0.00 0.00 42 1012.7
20260903194557 97 227 2.0 9.0 0.00 0.00 0.00 41 1012.6
20260903194046 99 292 4.0 9.0 0.00 0.00 0.00 42 1012.8
20260903193546 98 238 4.0 10.0 0.00 0.00 0.00 43 1012.8
20260903193108 98 159 5.0 10.0 0.00 0.00 0.00 44 1012.8
20260903192549 97 165 3.0 10.0 0.00 0.00 0.00 44 1012.9
20260903192047 97 167 3.0 14.0 0.00 0.00 0.00 42 1013.0
20260903191602 97 126 4.0 14.0 0.00 0.00 0.00 43 1013.2
20260903191048 96 155 2.0 8.0 0.00 0.00 0.00 44 1013.1
20260903190546 97 150 3.0 8.0 0.00 0.00 0.00 45 1013.3
20260903190059 97 123 5.0 8.0 0.00 0.00 0.00 43 1013.3
20260903185546 96 217 3.0 8.0 0.00 0.00 0.00 46 1013.4
20260903185046 94 166 4.0 10.0 0.00 0.00 0.00 47 1013.5
20260903184604 95 196 4.0 10.0 0.00 0.00 0.00 47 1013.6
20260903184048 94 166 4.0 10.0 0.00 0.00 0.00 47 1013.7
20260903183546 94 197 3.0 13.0 0.00 0.00 0.00 48 1013.8
20260903183106 94 200 4.0 13.0 0.00 0.00 0.00 48 1013.9
20260903182547 94 101 4.0 11.0 0.00 0.00 0.00 47 1013.9
20260903182046 94 196 6.0 11.0 0.00 0.00 0.00 46 1014.0
20260903181554 95 188 4.0 11.0 0.00 0.00 0.00 47 1014.0
20260903181050 94 202 3.0 15.0 0.00 0.00 0.00 49 1014.1
20260903180547 94 221 5.0 15.0 0.00 0.00 0.00 48 1014.1
20260903180106 95 120 4.0 10.0 0.00 0.00 0.00 48 1014.2
20260903175546 95 234 6.0 14.0 0.00 0.00 0.00 48 1014.3
20260903175046 94 242 5.0 14.0 0.00 0.00 0.00 48 1014.4
20260903174608 94 215 4.0 10.0 0.00 0.00 0.00 49 1014.4
20260903174046 93 269 4.0 10.0 0.00 0.00 0.00 51 1014.5
20260903173547 93 244 4.0 9.0 0.00 0.00 0.00 51 1014.5
20260903173107 92 221 4.0 9.0 0.00 0.00 0.00 54 1014.6
20260903172547 92 235 3.0 11.0 0.00 0.00 0.00 52 1014.6
20260903172047 92 173 5.0 13.0 0.00 0.00 0.00 54 1014.7
20260903171606 92 153 4.0 13.0 0.00 0.00 0.00 52 1014.8
20260903171046 93 257 6.0 15.0 0.00 0.00 0.00 53 1014.9
20260903170548 92 157 7.0 15.0 0.00 0.00 0.00 54 1014.8
20260903170107 91 167 4.0 11.0 0.00 0.00 0.00 54 1014.9
20260903165547 91 237 4.0 11.0 0.00 0.00 0.00 55 1014.9
20260903165046 91 200 5.0 12.0 0.00 0.00 0.00 55 1014.9
20260903164608 91 153 5.0 12.0 0.00 0.00 0.00 57 1014.7
20260903164047 91 176 5.0 12.0 0.00 0.00 0.00 57 1014.9
20260903163546 91 136 5.0 10.0 0.00 0.00 0.00 57 1014.9
20260903163101 90 163 5.0 10.0 0.00 0.00 0.00 58 1015.1
20260903162551 90 191 5.0 10.0 0.00 0.00 0.00 59 1015.0
20260903162048 90 196 4.0 11.0 0.00 0.00 0.00 58 1015.0
20260903161601 89 170 5.0 12.0 0.00 0.00 0.00 60 1015.0
20260903161046 89 186 5.0 12.0 0.00 0.00 0.00 59 1015.0
20260903160546 89 201 5.0 12.0 0.00 0.00 0.00 60 1014.9
20260903160110 88 159 5.0 13.0 0.00 0.00 0.00 62 1015.0
20260903155546 88 163 5.0 13.0 0.00 0.00 0.00 62 1015.0
20260903155051 88 117 5.0 11.0 0.00 0.00 0.00 62 1015.0
20260903154601 87 166 5.0 11.0 0.00 0.00 0.00 65 1015.0
20260903154047 86 259 5.0 11.0 0.00 0.00 0.00 67 1015.1
20260903153547 85 180 5.0 11.0 0.00 0.00 0.00 67 1015.1
20260903153109 85 140 5.0 12.0 0.00 0.00 0.00 67 1015.1
20260903152547 86 182 6.0 12.0 0.00 0.00 0.00 68 1015.1
20260903152049 86 153 4.0 10.0 0.00 0.00 0.00 69 1015.0
20260903151556 85 224 5.0 11.0 0.00 0.00 0.00 69 1015.2
20260903151047 85 234 5.0 12.0 0.00 0.00 0.00 68 1015.2
20260903150547 86 173 4.0 12.0 0.00 0.00 0.00 69 1015.1
20260903150053 85 236 4.0 10.0 0.00 0.00 0.00 70 1015.2
20260903145550 85 221 5.0 12.0 0.00 0.00 0.00 70 1015.1
20260903145047 85 184 6.0 12.0 0.00 0.00 0.00 71 1015.1
20260903144600 84 172 5.0 11.0 0.00 0.00 0.00 73 1015.1
20260903144049 84 227 5.0 11.0 0.00 0.00 0.00 74 1015.1
20260903143551 83 213 5.0 11.0 0.00 0.00 0.00 74 1015.1
20260903143108 83 219 6.0 11.0 0.00 0.00 0.00 74 1015.2
20260903142549 83 178 3.0 10.0 0.00 0.00 0.00 76 1015.2
20260903142048 82 177 4.0 10.0 0.00 0.00 0.00 77 1015.1
20260903141614 82 181 4.0 10.0 0.00 0.00 0.00 78 1015.1
20260903141049 82 205 5.0 12.0 0.00 0.00 0.00 78 1015.1
20260903140550 81 137 4.0 12.0 0.00 0.00 0.00 80 1015.1
20260903135546 81 184 5.0 10.0 0.00 0.00 0.00 80 1015.2
20260903135046 81 248 4.0 9.0 0.00 0.00 0.00 81 1015.2
20260903134611 81 195 3.0 9.0 0.00 0.00 0.00 82 1015.3
20260903134047 80 208 4.0 9.0 0.00 0.00 0.00 82 1015.3
20260903133550 80 203 3.0 9.0 0.00 0.00 0.00 83 1015.3
20260903133110 80 167 3.0 9.0 0.00 0.00 0.00 84 1015.3
20260903132553 80 221 4.0 10.0 0.00 0.00 0.00 84 1015.3
20260903132046 79 183 5.0 10.0 0.00 0.00 0.00 84 1015.3
20260903131555 79 150 4.0 9.0 0.00 0.00 0.00 84 1015.3
20260903131049 79 231 3.0 7.0 0.00 0.00 0.00 84 1015.3
20260903130548 79 210 3.0 7.0 0.00 0.00 0.00 84 1015.3
20260903130129 79 157 2.0 8.0 0.00 0.00 0.00 85 1015.2
20260903125547 79 173 3.0 8.0 0.00 0.00 0.00 85 1015.1
20260903125048 79 178 3.0 8.0 0.00 0.00 0.00 85 1015.1
20260903124606 79 163 3.0 7.0 0.00 0.00 0.00 85 1015.0
20260903124046 79 199 3.0 8.0 0.00 0.00 0.00 85 1014.9
20260903123546 79 191 3.0 8.0 0.00 0.00 0.00 85 1014.9
20260903123107 79 236 3.0 8.0 0.00 0.00 0.00 85 1014.9
20260903122548 79 200 3.0 7.0 0.00 0.00 0.00 85 1014.8
20260903122047 79 216 3.0 7.0 0.00 0.00 0.00 85 1014.7
20260903121602 79 219 4.0 7.0 0.00 0.00 0.00 85 1014.6
20260903121046 79 186 3.0 6.0 0.00 0.00 0.00 85 1014.7
20260903120546 79 167 3.0 6.0 0.00 0.00 0.00 85 1014.7
20260903120101 79 176 3.0 10.0 0.00 0.00 0.00 85 1014.7
20260903115549 79 167 3.0 10.0 0.00 0.00 0.00 85 1014.7
20260903115047 79 244 3.0 9.0 0.00 0.00 0.00 85 1014.6
20260903114600 79 197 3.0 9.0 0.00 0.00 0.00 85 1014.6
20260903114053 79 177 3.0 7.0 0.00 0.00 0.00 85 1014.6
20260903113549 79 171 3.0 7.0 0.00 0.00 0.00 85 1014.5
20260903113054 79 191 3.0 7.0 0.00 0.00 0.00 85 1014.6
20260903112546 79 178 2.0 7.0 0.00 0.00 0.00 85 1014.6
20260903112050 79 146 4.0 7.0 0.00 0.00 0.00 85 1014.6
20260903111554 79 207 4.0 6.0 0.00 0.00 0.00 85 1014.5
20260903111047 79 174 2.0 6.0 0.00 0.00 0.00 85 1014.6
20260903110550 79 192 3.0 9.0 0.00 0.00 0.00 85 1014.6
20260903110100 79 167 3.0 9.0 0.00 0.00 0.00 85 1014.5
20260903105548 79 180 3.0 9.0 0.00 0.00 0.00 85 1014.5
20260903105050 79 142 4.0 10.0 0.00 0.00 0.00 85 1014.4
20260903104559 79 133 4.0 10.0 0.00 0.00 0.00 85 1014.4
20260903104046 79 180 4.0 8.0 0.00 0.00 0.00 85 1014.4
20260903103549 79 173 4.0 8.0 0.00 0.00 0.00 85 1014.4
20260903103059 79 175 2.0 9.0 0.00 0.00 0.00 85 1014.4
20260903102546 79 169 2.0 9.0 0.00 0.00 0.00 85 1014.4
20260903102046 79 162 4.0 10.0 0.00 0.00 0.00 85 1014.3
20260903101602 79 185 3.0 10.0 0.00 0.00 0.00 85 1014.4
20260903101047 79 146 4.0 9.0 0.00 0.00 0.00 85 1014.4
20260903100547 79 145 3.0 8.0 0.00 0.00 0.00 85 1014.3
20260903100055 79 194 3.0 8.0 0.00 0.00 0.00 85 1014.3
20260903095549 79 157 3.0 8.0 0.00 0.00 0.00 86 1014.4
20260903095052 79 171 2.0 7.0 0.00 0.00 0.00 86 1014.4
20260903094607 79 171 2.0 7.0 0.00 0.00 0.00 86 1014.4
20260903094049 79 197 2.0 7.0 0.00 0.00 0.00 85 1014.4
20260903093550 79 150 3.0 6.0 0.00 0.00 0.00 85 1014.4
20260903093107 79 103 2.0 8.0 0.00 0.00 0.00 85 1014.4
20260903092550 79 178 3.0 9.0 0.00 0.00 0.00 85 1014.5
20260903092049 79 161 2.0 9.0 0.00 0.00 0.00 85 1014.5
20260903091605 79 202 2.0 9.0 0.00 0.00 0.00 85 1014.5
20260903091047 79 144 3.0 9.0 0.00 0.00 0.00 85 1014.5
20260903090552 79 205 3.0 8.0 0.00 0.00 0.00 85 1014.4
20260903090108 79 206 2.0 8.0 0.00 0.00 0.00 85 1014.5
20260903085546 79 169 3.0 8.0 0.00 0.00 0.00 85 1014.6
20260903085050 79 163 2.0 8.0 0.00 0.00 0.00 85 1014.6
20260903084600 79 190 2.0 6.0 0.00 0.00 0.00 85 1014.7
20260903084047 79 155 2.0 6.0 0.00 0.00 0.00 85 1014.6
20260903083551 79 170 2.0 6.0 0.00 0.00 0.00 85 1014.6
20260903083105 79 209 3.0 6.0 0.00 0.00 0.00 85 1014.5
20260903082550 79 136 3.0 6.0 0.00 0.00 0.00 84 1014.6
20260903082053 79 188 2.0 6.0 0.00 0.00 0.00 84 1014.7
20260903081623 79 182 2.0 6.0 0.00 0.00 0.00 84 1014.6
20260903081050 79 176 2.0 5.0 0.00 0.00 0.00 84 1014.7
20260903080552 79 180 2.0 6.0 0.00 0.00 0.00 84 1014.7
20260903080056 79 172 2.0 6.0 0.00 0.00 0.00 83 1014.7
20260903075549 79 184 2.0 9.0 0.00 0.00 0.00 83 1014.7
20260903075051 79 161 3.0 9.0 0.00 0.00 0.00 83 1014.7
20260903074610 79 136 1.0 6.0 0.00 0.00 0.00 82 1014.7
20260903074049 79 169 2.0 6.0 0.00 0.00 0.00 82 1014.7
20260903073550 79 134 2.0 6.0 0.00 0.00 0.00 81 1014.8
20260903073132 79 123 1.0 6.0 0.00 0.00 0.00 81 1014.7
20260903072548 79 172 2.0 6.0 0.00 0.00 0.00 81 1014.8
20260903072050 79 165 2.0 5.0 0.00 0.00 0.00 80 1014.9
20260903071617 79 152 2.0 6.0 0.00 0.00 0.00 80 1014.9
20260903071052 80 183 2.0 6.0 0.00 0.00 0.00 80 1014.8
20260903070549 80 163 2.0 6.0 0.00 0.00 0.00 79 1014.7
20260903070054 80 157 1.0 8.0 0.00 0.00 0.00 79 1014.7
20260903065550 80 136 3.0 8.0 0.00 0.00 0.00 79 1014.7
20260903065050 80 171 2.0 7.0 0.00 0.00 0.00 78 1014.8
20260903064557 80 142 2.0 10.0 0.00 0.00 0.00 78 1014.9
20260903064049 80 173 3.0 10.0 0.00 0.00 0.00 77 1014.9
20260903063549 80 182 3.0 9.0 0.00 0.00 0.00 77 1014.9
20260903063100 81 143 2.0 10.0 0.00 0.00 0.00 76 1014.9
20260903062549 81 194 4.0 10.0 0.00 0.00 0.00 76 1014.9
20260903062051 81 173 4.0 14.0 0.00 0.00 0.00 75 1014.8
20260903061555 81 163 5.0 14.0 0.00 0.00 0.00 75 1015.0
20260903061049 81 168 5.0 11.0 0.00 0.00 0.00 74 1015.0
20260903060549 81 167 3.0 11.0 0.00 0.00 0.00 73 1015.0
20260903060136 82 182 3.0 9.0 0.00 0.00 0.00 72 1015.1
20260903055549 82 178 4.0 10.0 0.00 0.00 0.00 71 1015.1
20260903055046 82 188 3.0 10.0 0.00 0.00 0.00 70 1015.0
20260903054600 82 194 4.0 11.0 0.00 0.00 0.00 69 1015.0
20260903054049 82 187 4.0 11.0 0.00 0.00 0.00 68 1015.0
20260903053551 83 165 4.0 10.0 0.00 0.00 0.00 68 1015.1
20260903053059 83 154 5.0 10.0 0.00 0.00 0.00 67 1015.0
20260903052551 83 153 4.0 9.0 0.00 0.00 0.00 67 1015.0
20260903052053 83 146 3.0 9.0 0.00 0.00 0.00 66 1015.0
20260903051606 83 132 3.0 9.0 0.00 0.00 0.00 65 1014.9
20260903051048 84 165 3.0 8.0 0.00 0.00 0.00 64 1014.7
20260903050546 84 161 3.0 9.0 0.00 0.00 0.00 64 1014.6
20260903045546 84 161 3.0 8.0 0.00 0.00 0.00 64 1014.6
20260903045046 84 157 3.0 8.0 0.00 0.00 0.00 64 1014.4
20260903044602 84 162 2.0 6.0 0.00 0.00 0.00 64 1014.5
20260903044047 84 141 2.0 7.0 0.00 0.00 0.00 64 1014.5
20260903043546 84 140 1.0 8.0 0.00 0.00 0.00 63 1014.5
20260903043054 85 157 1.0 8.0 0.00 0.00 0.00 63 1014.4
20260903042546 85 190 2.0 8.0 0.00 0.00 0.00 63 1014.4
20260903042046 84 115 3.0 10.0 0.00 0.00 0.00 63 1014.5
20260903041602 84 150 2.0 10.0 0.00 0.00 0.00 62 1014.4
20260903041046 84 66 2.0 8.0 0.00 0.00 0.00 62 1014.4
20260903040549 84 92 0.0 4.0 0.00 0.00 0.00 61 1014.2
20260903040104 84 61 1.0 6.0 0.00 0.00 0.00 61 1014.1
20260903035548 84 112 0.0 6.0 0.00 0.00 0.00 61 1014.2
20260903035047 84 0 1.0 6.0 0.00 0.00 0.00 61 1014.2
20260903034601 84 38 1.0 7.0 0.00 0.00 0.00 61 1014.1
20260903034047 84 120 1.0 7.0 0.00 0.00 0.00 61 1014.1
20260903033548 84 126 1.0 5.0 0.00 0.00 0.00 62 1014.1
20260903033054 83 76 0.0 5.0 0.00 0.00 0.00 62 1014.1
20260903032550 83 154 0.0 5.0 0.00 0.00 0.00 63 1014.1
20260903032047 83 0 0.0 1.0 0.00 0.00 0.00 62 1014.0
20260903031551 84 0 0.0 1.0 0.00 0.00 0.00 62 1013.9
20260903031046 84 0 0.0 1.0 0.00 0.00 0.00 62 1013.8
20260903030546 84 0 0.0 1.0 0.00 0.00 0.00 61 1013.7
20260903030100 84 0 0.0 1.0 0.00 0.00 0.00 61 1013.6
20260903025547 84 0 0.0 0.0 0.00 0.00 0.00 60 1013.5
20260903025047 85 0 0.0 0.0 0.00 0.00 0.00 59 1013.5
20260903024558 85 0 0.0 0.0 0.00 0.00 0.00 58 1013.3
20260903024047 85 0 0.0 0.0 0.00 0.00 0.00 58 1013.3
20260903023546 85 0 0.0 0.0 0.00 0.00 0.00 57 1013.2
20260903023108 86 0 0.0 0.0 0.00 0.00 0.00 58 1013.1
20260903022549 86 0 0.0 0.0 0.00 0.00 0.00 58 1013.2
20260903022048 86 0 0.0 0.0 0.00 0.00 0.00 57 1013.2
20260903021600 86 0 0.0 0.0 0.00 0.00 0.00 56 1013.0
20260903021048 86 0 0.0 0.0 0.00 0.00 0.00 55 1013.0
20260903020550 87 0 0.0 0.0 0.00 0.00 0.00 54 1012.8
20260903020103 87 0 0.0 0.0 0.00 0.00 0.00 53 1012.9
20260903015547 87 0 0.0 0.0 0.00 0.00 0.00 52 1012.7
20260903015046 88 0 0.0 0.0 0.00 0.00 0.00 52 1012.7
20260903014604 88 0 0.0 0.0 0.00 0.00 0.00 52 1012.6
20260903014047 89 0 0.0 0.0 0.00 0.00 0.00 51 1012.6
20260903013547 89 0 0.0 0.0 0.00 0.00 0.00 51 1012.6
20260903013108 89 0 0.0 0.0 0.00 0.00 0.00 51 1012.5
20260903012549 89 0 0.0 0.0 0.00 0.00 0.00 50 1012.5
20260903012049 89 0 0.0 0.0 0.00 0.00 0.00 50 1012.5
20260903011600 89 0 0.0 0.0 0.00 0.00 0.00 50 1012.5
20260903011048 89 0 0.0 0.0 0.00 0.00 0.00 49 1012.4
20260903010549 89 0 0.0 0.0 0.00 0.00 0.00 49 1012.5
20260903010107 90 0 0.0 0.0 0.00 0.00 0.00 48 1012.4
20260903005548 90 0 0.0 0.0 0.00 0.00 0.00 47 1012.4
20260903005047 91 0 0.0 0.0 0.00 0.00 0.00 45 1012.5
20260903004604 92 0 0.0 0.0 0.00 0.00 0.00 44 1012.4
20260903004046 93 0 0.0 1.0 0.00 0.00 0.00 43 1012.4
20260903003547 93 0 0.0 2.0 0.00 0.00 0.00 42 1012.5
20260903003105 93 0 0.0 2.0 0.00 0.00 0.00 41 1012.4
20260903002546 94 0 0.0 4.0 0.00 0.00 0.00 41 1012.4
20260903002046 94 140 1.0 5.0 0.00 0.00 0.00 40 1012.5
20260903001614 94 145 0.0 5.0 0.00 0.00 0.00 42 1012.4
20260903001049 95 136 1.0 5.0 0.00 0.00 0.00 41 1012.5
20260903000547 95 137 2.0 6.0 0.00 0.00 0.00 41 1012.5
20260903000100 95 148 2.0 6.0 0.00 0.00 0.00 41 1012.5
20260902235547 95 131 2.0 6.0 0.00 0.00 0.00 41 1012.5
20260902235047 95 0 1.0 6.0 0.00 0.00 0.00 41 1012.5
20260902234613 95 137 0.0 4.0 0.00 0.00 0.00 41 1012.5
20260902234048 96 128 1.0 4.0 0.00 0.00 0.00 41 1012.5
20260902233546 95 93 1.0 4.0 0.00 0.00 0.00 42 1012.5
20260902233054 95 111 1.0 4.0 0.00 0.00 0.00 42 1012.5
20260902232549 95 0 1.0 4.0 0.00 0.00 0.00 41 1012.6
20260902232046 96 0 0.0 5.0 0.00 0.00 0.00 41 1012.6
20260902231614 96 0 1.0 5.0 0.00 0.00 0.00 41 1012.5
20260902231047 96 170 1.0 4.0 0.00 0.00 0.00 40 1012.6
20260902230546 96 136 1.0 4.0 0.00 0.00 0.00 40 1012.5
20260902230112 96 159 1.0 4.0 0.00 0.00 0.00 42 1012.5
20260902225548 96 136 1.0 3.0 0.00 0.00 0.00 42 1012.5
20260902225048 96 121 0.0 4.0 0.00 0.00 0.00 42 1012.5
20260902224554 97 152 1.0 4.0 0.00 0.00 0.00 41 1012.5
20260902224046 96 168 0.0 4.0 0.00 0.00 0.00 42 1012.5
20260902223548 96 121 1.0 4.0 0.00 0.00 0.00 42 1012.5
20260902223101 96 0 0.0 2.0 0.00 0.00 0.00 43 1012.5
20260902222547 95 0 0.0 3.0 0.00 0.00 0.00 44 1012.5
20260902222046 95 0 0.0 3.0 0.00 0.00 0.00 46 1012.5
20260902221558 94 0 0.0 3.0 0.00 0.00 0.00 46 1012.6